Flock 4g-36

operational
NORAD ID: 62675 Int'l Des: 2025-009 Owner: PLAN Country: US Constellation: planet
LEOCIRCULARRETROGRADESSO

About Flock 4g-36

Description loading...

Live Position

Loading 3D Globe...

Upcoming Passes

Altitude History

Altitude vs Time

uPlot chart will show altitude changes over time

Two-Line Element Set

1 62675U 25009BU 25298.16937957 .00015459 00000-0 65435-3 0 9995
2 62675 97.4232 16.7376 0006268 78.4903 281.7038 15.23254872 43047
Epoch: Oct 25, 2025 • Age: 17 hours

Current Status

Altitude 506.6 km
Velocity 7.61 km/s
Sub-Earth Point -25.90°S, 27.14°E
Launch Date Jan 14, 2025
Age 0.7 years
Type earth observation

Technical Details

Classification Payload
Mass 5.70 kg
Dry Mass 5.70 kg
Total Mass 5.70 kg
Length 0.30 m
Diameter 0.10 m
Span 0.30 m
Shape Box+2 pan
Manufacturer PLAN
Bus Type Cubesat 3U
Phase Status In Orbit
Owner/State PLAN/US

Large Constellations

Loading constellations...